カタログに戻る

TITAN 3C TRANSTAGE DEB

運用中HEO
NORAD 36984·DEBRIS·🇺🇸 United States

打ち上げ Dec 21, 1965 から Cape Canaveral Space Force Station

Loading…

次のパス (今後24時間)

TLE

最新Source: Space-Track

元期: Sep 13, 2026, 21:12 UTC

1 36984U 65108DQ  26256.88350160  .00001096  00000-0  20724-2 0  9995
2 36984  26.4185 172.2202 4103032  18.8615 352.7461  6.77921334648239

AllMySatでTITAN 3C TRANSTAGE DEBをリアルタイム追跡

Download on the App Store